Effective Sunday, March 17, 2024, the National Weather Service National Data Buoy Center will discontinue its Dial-A-Buoy Interactive Voice Response system. For more information, see Service Change Notice 24-06 (PDF).

Station GISL1 - 8761724 - Grand Isle, LA Image indicating link to RSS feed of recent meteorological observations for station GISL1


Conditions at GISL1 as of
(10:48 am CST)
1648 GMT on 03/02/2024:
     

Click on the graph icon in the table below to see a time series plot of the last five days of that observation.

5-day plot - Wind Direction Wind Direction (WDIR):ENE ( 70 deg true )
5-day plot - Wind Speed Wind Speed (WSPD): 8.9 kts
5-day plot - Wind Gust Wind Gust (GST): 12.0 kts
5-day plot - Atmospheric Pressure Atmospheric Pressure (PRES):30.12 in
5-day plot - Air Temperature Air Temperature (ATMP): 62.4 °F
5-day plot - Water Temperature Water Temperature (WTMP): 65.1 °F
5-day plot - Wind Speed at 10 Meters Wind Speed at 10 meters (WSPD10M): 9.7 kts
5-day plot - Wind Speed at 20 Meters Wind Speed at 20 meters (WSPD20M): 9.7 kts
5-day plot -  Wind Speed, Wind Gust and Atmospheric Pressure Combined plot of Wind Speed, Gust, and Air Pressure
NOS Water Level Observation Network Water Level
Previous observations
TIME
(CST)
5-day plot - Wind Direction
WDIR
 
5-day plot - Wind Speed
WSPD
kts
5-day plot - Wind Gust
GST
kts
5-day plot - Wave Height
WVHT
ft
5-day plot - Dominant Wave Period
DPD
sec
5-day plot - Average Wave Period
APD
sec
5-day plot - Mean Wave Direction
MWD
 
5-day plot - Atmospheric Pressure
PRES
in
5-day plot - Pressure Tendency
PTDY
in
5-day plot - Air Temperature
ATMP
°F
5-day plot - Water Temperature
WTMP
°F
5-day plot - Dew Point
DEWP
°F
5-day plot - Salinity
SAL
psu
5-day plot - Visibility
VIS
nmi
5-day plot - Tide (above MLLW)
TIDE
ft
2024-03-02 10:42 amENE 7.0 9.9----30.12- 62.6 65.1----
2024-03-02 10:36 amENE 8.0 9.9----30.12- 62.6 65.1----
2024-03-02 10:30 am NE 6.0 9.9----30.12- 62.6 65.1----
2024-03-02 10:24 amENE 8.9 11.1----30.12- 62.4 65.1----
2024-03-02 10:18 amENE 9.9 12.0----30.11- 62.4 65.1----
2024-03-02 10:12 amENE 9.9 13.0----30.11- 62.4 65.1----
2024-03-02 10:06 amENE 9.9 12.0----30.12- 62.4 65.1----
2024-03-02 10:00 amENE 7.0 9.9----30.13+0.03 62.4 65.1----
2024-03-02 09:54 am E 6.0 11.1----30.12- 62.6 65.1----
2024-03-02 09:48 am E 9.9 12.0----30.12- 62.2 65.1----
2024-03-02 09:42 amENE 8.0 11.1----30.12- 62.1 65.1----
2024-03-02 09:36 am E 8.0 9.9----30.12- 62.2 65.1----
2024-03-02 09:30 am E 6.0 11.1----30.12-- 65.1----
2024-03-02 09:24 am E 5.1 8.9----30.12-- 65.1----
2024-03-02 09:18 am E 6.0 8.9----30.12- 62.4 65.1----
2024-03-02 09:12 am E 7.0 8.9----30.12- 62.1 65.1----
2024-03-02 09:06 am E 6.0 8.0----30.13- 62.2 65.1----
2024-03-02 09:00 amENE 6.0 8.0----30.12+0.05 62.2 65.1----
2024-03-02 08:54 am E 7.0 9.9----30.12- 62.1 65.3----
2024-03-02 08:48 am E 6.0 8.9----30.12- 62.1 65.3----
2024-03-02 08:42 am E 6.0 8.9----30.12- 62.2 65.7----
2024-03-02 08:36 am E 5.1 8.9----30.11- 62.2 65.5----
2024-03-02 08:30 am E 5.1 8.9----30.11- 62.1 65.5----
2024-03-02 08:24 amENE 7.0 8.9----30.11- 61.7 65.7----
2024-03-02 08:18 am E 7.0 8.9----30.11- 61.9 65.7----
2024-03-02 08:12 amENE 6.0 8.0----30.11- 61.9 65.7----
2024-03-02 08:06 amENE 6.0 8.0----30.11- 61.7 65.7----
2024-03-02 08:00 amENE 7.0 8.9----30.11+0.06 61.7 65.7----
2024-03-02 07:54 am E 7.0 8.0----30.12- 61.7 65.7----
2024-03-02 07:48 amENE 5.1 7.0----30.12- 61.5 65.7----
2024-03-02 07:42 am NE 5.1 7.0----30.12- 61.5 65.7----
2024-03-02 07:36 am NE 5.1 6.0----30.12- 61.5 65.7----
2024-03-02 07:30 am NE 2.9 5.1----30.11- 61.5 65.7----
2024-03-02 07:24 am E 4.1 7.0----30.12- 61.5 65.7----
2024-03-02 07:18 am E 4.1 7.0----30.11- 61.5 65.5----
2024-03-02 07:12 amENE 6.0 7.0----30.11- 61.5 65.5----
2024-03-02 07:06 am NE 4.1 6.0----30.10- 61.7 65.5----
2024-03-02 07:00 amENE 5.1 7.0----30.10+0.06 61.5 65.5----
2024-03-02 06:54 amENE 5.1 7.0----30.09- 61.5 65.5----
2024-03-02 06:48 am NE 5.1 8.0----30.09-- 65.5----
2024-03-02 06:42 am NE 5.1 7.0----30.09-- 65.3----
2024-03-02 06:36 am NE 5.1 8.0----30.09-- 65.3----
2024-03-02 06:30 am NE 4.1 8.0----30.09- 61.7 65.3----
2024-03-02 06:24 am NE 4.1 6.0----30.09- 61.9 65.5----
2024-03-02 06:18 am NE 4.1 7.0----30.08- 61.9 65.5----
2024-03-02 06:12 am NE 4.1 6.0----30.08- 61.9 65.5----
2024-03-02 06:06 amNNE 4.1 6.0----30.07- 61.9 65.5----
2024-03-02 06:00 am NE 4.1 7.0----30.07+0.03 61.9 65.5----
2024-03-02 05:54 am NE 5.1 8.0----30.07- 61.9 65.5----
2024-03-02 05:48 am NE 5.1 7.0----30.06- 62.1 65.5----
2024-03-02 05:42 am NE 5.1 7.0----30.06- 62.1 65.5----
2024-03-02 05:36 am NE 5.1 7.0----30.06- 62.1 65.5----
2024-03-02 05:30 am-------30.06-------
2024-03-02 05:24 am-------30.06-------
2024-03-02 05:18 am NE 5.1 6.0----30.06- 62.4 65.3----
2024-03-02 05:12 amENE 5.1 6.0----30.06- 62.4 65.3----
2024-03-02 05:06 amENE 2.9 6.0----30.06- 62.4 65.3----
2024-03-02 05:00 am E 4.1 6.0----30.06+0.00- 65.3----
2024-03-02 04:54 am E 4.1 6.0----30.06-- 65.3----
2024-03-02 04:48 am---------- 65.3----
2024-03-02 04:42 am---------- 65.3----
2024-03-02 04:36 am---------- 65.5----
2024-03-02 04:30 am NE 4.1 5.1----30.04- 62.1 65.5----
2024-03-02 04:24 amNNE 4.1 8.0----30.04- 62.1 65.5----
2024-03-02 04:18 amNNE 5.1 8.0----30.04-- 65.5----
2024-03-02 04:12 amNNE 5.1 7.0----30.04-- 65.7----
2024-03-02 04:06 am N 5.1 7.0----30.04-- 65.7----
2024-03-02 04:00 am N 5.1 6.0----30.04-0.04 62.2 65.7----
2024-03-02 03:54 am N 5.1 7.0----30.04- 62.2 65.7----
2024-03-02 03:48 amNNE 4.1 5.1----30.04- 62.4 65.7----
2024-03-02 03:42 amNNE 5.1 6.0----30.04- 62.6 65.7----
2024-03-02 03:36 amNNE 2.9 4.1----30.03- 62.6 65.7----
2024-03-02 03:30 amNNE 2.9 4.1----30.03- 62.6 65.7----
2024-03-02 03:24 am NE 1.9 4.1----30.03- 62.6 65.7----
2024-03-02 03:18 amNNE 2.9 5.1----30.03- 62.6 65.7----
2024-03-02 03:12 am NE 2.9 4.1----30.04- 62.6 65.7----
2024-03-02 03:06 amENE 1.9 4.1----30.04- 62.4 65.7----
2024-03-02 03:00 amENE 1.9 2.9----30.04-0.04 62.4 65.7----
2024-03-02 02:54 am NE 2.9 4.1----30.04- 62.4 65.8----
2024-03-02 02:48 amENE 1.9 2.9----30.05- 62.4 65.8----
2024-03-02 02:42 am NE 1.9 4.1----30.05- 62.4 65.8----
2024-03-02 02:36 am NE 1.9 5.1----30.05- 62.4 66.0----
2024-03-02 02:30 amNNE 4.1 5.1----30.06- 62.4 65.8----
2024-03-02 02:24 am E 2.9 5.1----30.05- 62.4 65.7----
2024-03-02 02:18 am E 2.9 5.1----30.05- 62.2 65.7----
2024-03-02 02:12 am NE 4.1 5.1----30.05- 62.2 65.8----
2024-03-02 02:06 amENE 2.9 5.1----30.06- 62.2 65.7----
2024-03-02 02:00 amENE 4.1 5.1----30.06-0.02 62.2 65.7----
2024-03-02 01:54 am E 2.9 5.1----30.06- 62.4 65.7----
2024-03-02 01:48 am NE 4.1 5.1----30.07- 62.4 65.7----
2024-03-02 01:42 am E 4.1 6.0----30.07- 62.4 65.7----
2024-03-02 01:36 amENE 4.1 5.1----30.07- 62.2 65.7----
2024-03-02 01:30 am NE 4.1 5.1----30.07- 62.2-----
2024-03-02 01:24 am NE 2.9 5.1----30.08- 62.4-----
2024-03-02 01:18 amNNE 2.9 4.1----30.08- 62.4 65.8----
2024-03-02 01:12 am NE 1.9 4.1----30.08- 62.4 65.7----
2024-03-02 01:06 amENE 2.9 5.1----30.08- 62.4 65.7----
2024-03-02 01:00 am NE 2.9 4.1----30.08-0.02 62.4 65.7----
2024-03-02 12:54 am NE 4.1 5.1----30.08- 62.4 65.7----
2024-03-02 12:48 amENE 2.9 4.1----30.08- 62.2 65.8----
2024-03-02 12:42 amNNE 1.9 4.1----30.08- 62.4 65.8----
2024-03-02 12:36 amNNE 2.9 5.1----30.07- 62.4 65.8----
2024-03-02 12:30 am N 4.1 5.1----30.07- 62.6 66.0----
2024-03-02 12:24 amNNE 4.1 6.0----30.07- 63.0 66.0----
2024-03-02 12:18 am E 1.9 4.1----30.07- 63.9-----
2024-03-02 12:12 am E 1.9 4.1----30.07- 63.9-----
2024-03-02 12:06 amENE 4.1 5.1----30.08- 63.9-----
2024-03-02 12:00 amENE 4.1 6.0----30.07-0.04 63.9 66.0----
2024-03-01 11:54 pmENE 5.1 5.1----30.08- 63.9 66.0----
2024-03-01 11:48 pm E 4.1 6.0----30.08- 63.9 66.0----
2024-03-01 11:42 pm E 5.1 7.0----30.07- 63.9 66.0----
2024-03-01 11:36 pm E 5.1 6.0----30.07- 63.7 65.8----
2024-03-01 11:30 pm E 2.9 5.1----30.08- 63.7 66.0----
2024-03-01 11:24 pm E 4.1 6.0----30.08- 63.7 66.0----
2024-03-01 11:18 pm E 4.1 5.1----30.08- 63.7 66.0----
2024-03-01 11:12 pmESE 4.1 5.1----30.08- 63.7 65.8----
2024-03-01 11:06 pm E 4.1 6.0----30.09- 63.7 65.8----
2024-03-01 11:00 pm E 4.1 5.1----30.09+0.00 63.7 65.8----
2024-03-01 10:54 pmENE 2.9 6.0----30.09- 63.7 66.0----
2024-03-01 10:48 pm E 5.1 8.0----30.09- 63.5 66.0----
2024-03-01 10:42 pm E 5.1 7.0----30.09- 63.5 65.8----
2024-03-01 10:36 pm E 6.0 8.0----30.09- 63.5 65.8----
2024-03-01 10:30 pm E 5.1 7.0----30.09- 63.3 65.8----
2024-03-01 10:24 pmENE 4.1 7.0----30.09- 63.3 65.8----
2024-03-01 10:18 pm E 5.1 8.9----30.09- 63.3 65.8----
2024-03-01 10:12 pm E 5.1 7.0----30.09- 63.3 65.7----
2024-03-01 10:06 pm E 4.1 6.0----30.10- 63.1 65.8----
2024-03-01 10:00 pm E 5.1 7.0----30.10+0.03 63.1 65.8----
2024-03-01 09:54 pm E 5.1 8.9----30.09- 63.1 65.7----
2024-03-01 09:48 pm E 6.0 8.0----30.09- 63.1 65.8----
2024-03-01 09:42 pm E 5.1 8.0----30.09- 63.0 66.0----
2024-03-01 09:36 pm E 6.0 8.0----30.10- 63.0 66.0----
2024-03-01 09:30 pm NE 5.1 7.0----30.10- 63.0 66.0----
2024-03-01 09:24 pmENE 4.1 7.0----30.11- 63.0 66.2----
2024-03-01 09:18 pmENE 5.1 8.0----30.11- 62.8 66.2----
2024-03-01 09:12 pmENE 5.1 6.0----30.11- 63.0 66.2----
2024-03-01 09:06 pmENE 5.1 7.0----30.11- 62.8 66.0----
2024-03-01 09:00 pm NE 5.1 7.0----30.11+0.05 62.6 66.0----
2024-03-01 08:54 pmENE 5.1 6.0----30.11- 62.4 66.0----
2024-03-01 08:48 pmNNE 4.1 6.0----30.11- 62.4 65.8----
2024-03-01 08:42 pm NE 5.1 6.0----30.11- 62.4 65.3----
2024-03-01 08:36 pm NE 4.1 6.0----30.10- 62.6 65.1----
2024-03-01 08:30 pm NE 4.1 6.0----30.10- 62.8 66.2----
2024-03-01 08:24 pmENE 5.1 7.0----30.10- 62.6 65.8----
2024-03-01 08:18 pmENE 5.1 7.0----30.10- 62.8 65.7----
2024-03-01 08:12 pmENE 5.1 7.0----30.09- 62.6 66.0----
2024-03-01 08:06 pm NE 6.0 8.0----30.09- 62.8 65.8----
2024-03-01 08:00 pmENE 5.1 7.0----30.09+0.04 62.8 65.5----
2024-03-01 07:54 pm E 6.0 8.0----30.08- 62.8 65.5----
2024-03-01 07:48 pmENE 5.1 7.0----30.09- 62.8 65.5----
2024-03-01 07:42 pm NE 5.1 8.0----30.09- 62.8 65.8----
2024-03-01 07:36 pmNNE 6.0 9.9----30.09- 62.8 65.8----
2024-03-01 07:30 pm N 8.9 11.1----30.09- 62.8 65.8----
2024-03-01 07:24 pm N 11.1 13.0----30.09- 63.1 65.7----
2024-03-01 07:18 pm N 6.0 8.0----30.08- 63.0 66.0----
2024-03-01 07:12 pm N 5.1 8.0----30.08- 63.1 66.0----
2024-03-01 07:06 pmNNE 5.1 8.0----30.07- 63.0 66.0----
2024-03-01 07:00 pm N 7.0 8.9----30.07+0.01 63.0 65.8----
2024-03-01 06:54 pm N 7.0 8.0----30.07- 63.0 66.2----
2024-03-01 06:48 pmNNW 8.0 8.0----30.07- 62.8 66.0----
2024-03-01 06:42 pm N 7.0 8.9----30.07- 62.8 65.7----
2024-03-01 06:36 pmNNW 9.9 11.1----30.07- 62.4 65.7----
2024-03-01 06:30 pm N 11.1 13.0----30.06- 62.4 66.0----
2024-03-01 06:24 pmNNW 9.9 12.0----30.06- 62.8 65.8----
2024-03-01 06:18 pm N 8.9 12.0----30.06- 62.8 66.0----
2024-03-01 06:12 pmNNW 9.9 14.0----30.06- 62.6 65.7----
2024-03-01 06:06 pmNNW 11.1 13.0----30.06- 62.8 65.3----
2024-03-01 06:00 pmNNW 9.9 14.0----30.06+0.01 62.8 65.1----
2024-03-01 05:54 pmNNW 12.0 13.0----30.06- 63.0 64.8----
2024-03-01 05:48 pmNNW 11.1 13.0----30.06- 63.1 64.6----
2024-03-01 05:42 pm N 7.0 8.9----30.05- 63.5 65.5----
2024-03-01 05:36 pm N 6.0 7.0----30.05- 63.7 65.1----
2024-03-01 05:30 pm N 6.0 8.0----30.05- 63.7 64.6----
2024-03-01 05:24 pmNNW 7.0 9.9----30.05- 64.0 64.6----
2024-03-01 05:18 pmNNW 8.0 11.1----30.05- 64.0 64.9----
2024-03-01 05:12 pmNNW 6.0 8.9----30.05- 64.8 64.6----
2024-03-01 05:06 pmNNW 8.0 8.9----30.05- 64.6 64.4----
2024-03-01 05:00 pmNNW 7.0 9.9----30.05+0.00 64.9 64.6----
2024-03-01 04:54 pm NW 8.9 11.1----30.06- 64.9 64.6----
2024-03-01 04:48 pm NW 6.0 8.9----30.05- 65.5 64.4----
2024-03-01 04:42 pm NW 7.0 11.1----30.05- 65.5 64.4----
2024-03-01 04:36 pmWNW 8.9 12.0----30.05- 66.6 64.6----
2024-03-01 04:30 pm W 7.0 8.9----30.05- 67.3 64.8----
2024-03-01 04:24 pmWNW 8.9 9.9----30.05- 67.3 64.4----
2024-03-01 04:18 pmWNW 8.0 9.9----30.05- 67.5 64.4----
2024-03-01 04:12 pmWNW 9.9 11.1----30.05- 67.8 64.4----
2024-03-01 04:06 pmWNW 8.9 12.0----30.05- 67.8 64.4----
2024-03-01 04:00 pm W 11.1 12.0----30.06+0.00 68.4 64.4----
2024-03-01 03:54 pm W 8.9 13.0----30.06- 69.1 64.4----
2024-03-01 03:48 pm W 8.9 12.0----30.05- 69.6 64.4----
2024-03-01 03:42 pmWSW 7.0 13.0----30.05- 73.0 64.4----
2024-03-01 03:36 pm SW 7.0 12.0----30.04- 72.7 64.4----
2024-03-01 03:30 pm SW 8.0 11.1----30.05- 72.3 64.4----
2024-03-01 03:24 pm SW 8.0 12.0----30.05- 72.0 64.4----
2024-03-01 03:18 pmWSW 7.0 13.0----30.05- 71.8 64.4----
2024-03-01 03:12 pm SW 7.0 9.9----30.05- 71.8 64.6----
2024-03-01 03:06 pmSSW 8.9 11.1----30.05- 71.4 64.4----
2024-03-01 03:00 pmSSW 7.0 11.1----30.05-0.04 71.6 64.4----
2024-03-01 02:54 pmSSW 6.0 12.0----30.05- 71.6 64.2----
2024-03-01 02:48 pmSSW 7.0 12.0----30.05- 71.8 64.2----
2024-03-01 02:42 pm SW 8.9 12.0----30.05- 72.1 64.2----
2024-03-01 02:36 pm SW 8.9 9.9----30.04- 71.6 64.2----
2024-03-01 02:30 pmSSW 7.0 12.0----30.05- 71.2 64.2----
2024-03-01 02:24 pm SW 7.0 11.1----30.04- 71.6 64.2----
2024-03-01 02:18 pm SW 8.0 11.1----30.05- 71.8 64.2----
2024-03-01 02:12 pmWSW 7.0 12.0----30.05- 71.6 64.2----
2024-03-01 02:06 pm SW 5.1 12.0----30.04- 71.4 64.2----
2024-03-01 02:00 pmSSW 7.0 11.1----30.05-0.06 70.9 64.2----
2024-03-01 01:54 pmSSW 8.0 11.1----30.05- 70.7 64.2----
2024-03-01 01:48 pmSSW 8.0 12.0----30.05- 70.9 64.2----
2024-03-01 01:42 pmSSW 7.0 9.9----30.04- 71.1 64.2----
2024-03-01 01:36 pmSSW 7.0 11.1----30.05- 71.4 64.2----
2024-03-01 01:30 pmSSW 8.0 12.0----30.05- 71.2 64.2----
2024-03-01 01:24 pmSSW 6.0 9.9----30.05- 71.2 64.2----
2024-03-01 01:18 pmSSW 6.0 11.1----30.05- 70.7 64.2----
2024-03-01 01:12 pmSSW 8.0 12.0----30.06- 71.1 64.2----
2024-03-01 01:06 pmSSW 7.0 12.0----30.06- 71.6 64.2----
2024-03-01 01:00 pmSSW 7.0 13.0----30.06-0.03 72.3 64.2----
2024-03-01 12:54 pm S 8.9 13.0----30.06- 72.1 64.0----
2024-03-01 12:48 pm S 7.0 12.0----30.06- 71.8 64.0----
2024-03-01 12:42 pmSSW 8.9 13.0----30.06- 71.8 64.0----
2024-03-01 12:36 pm S 8.9 14.0----30.06- 72.1 64.0----
2024-03-01 12:30 pm S 8.0 11.1----30.07- 71.8 64.0----
2024-03-01 12:24 pm S 8.9 14.0----30.08- 71.4 64.0----
2024-03-01 12:18 pm S 8.9 13.0----30.08- 71.8 64.0----
2024-03-01 12:12 pm S 8.0 12.0----30.08- 72.1 63.9----
2024-03-01 12:06 pm S 8.0 12.0----30.08- 71.8 63.9----
2024-03-01 12:00 pm S 7.0 12.0----30.08-0.01 71.8 63.9----
2024-03-01 11:54 am S 7.0 12.0----30.08- 71.8 63.9----
2024-03-01 11:48 am S 8.0 9.9----30.09- 71.4 63.7----
2024-03-01 11:42 am S 8.0 12.0----30.09- 71.1 63.7----
2024-03-01 11:36 am S 8.9 12.0----30.09- 71.1 63.7----
2024-03-01 11:30 am S 7.0 11.1----30.10- 71.2 63.7----
2024-03-01 11:24 amSSW 8.9 11.1----30.10- 70.5 63.7----
2024-03-01 11:18 am S 8.0 12.0----30.10- 70.2 63.7----
2024-03-01 11:12 am S 7.0 11.1----30.10- 70.3 63.5----
2024-03-01 11:06 am S 6.0 12.0----30.10- 70.5 63.5----
2024-03-01 11:00 am S 7.0 9.9----30.10+0.01 70.0 63.5----
2024-03-01 10:54 am S 7.0 12.0----30.10- 69.8 63.7----